Simultaneous Nadir Overpasses (SNOs) Predictions

Prediction of SNOs between GOES-17 and AQUA Satellite Orbit:

Table of predicted SNOs for the next 14.0 days since TLE Epoch: 8/10/2019
Index Date Time (GOES-17) GOES-17 Lat,Lon AQUA Lat,Lon Distance(km) Time Diff (sec)
1 08/11/2019 22:36:18 0.04,-137.18 0.49,-134.94 254.19 80
2 08/12/2019 10:57:34 -0.05,-137.19 0.60,-140.10 331.63 80
3 08/14/2019 10:45:23 -0.05,-137.17 -0.08,-137.16 4.05 80
4 08/16/2019 10:33:11 -0.05,-137.16 -0.70,-134.20 336.92 80
5 08/16/2019 22:51:54 0.06,-137.14 -0.44,-139.38 255.13 80
6 08/18/2019 22:42:22 0.06,-137.11 0.19,-136.42 78.62 80
7 08/20/2019 22:30:10 0.06,-137.09 0.81,-133.46 411.78 80
8 08/21/2019 10:48:46 -0.06,-137.09 0.27,-138.62 174.33 80
9 08/23/2019 10:39:14 -0.06,-137.05 -0.36,-135.66 157.82 80
10 08/23/2019 22:57:58 0.06,-137.03 -0.72,-140.86 435.01 80




NCC Satellite Simultaneous Nadir Overpasses (SNOs) Prediction Service
